GW2822 Weather Reports


time (UTC)temp
C
wind
direction
speed
KPH
gust
KPH
rain 1hr
cm
rain 24hr
cm
rain mn
cm
humidity
%
barometer
mb
20260509010033 23 124 1.6 8.0 0.00 0.00 0.00 83 1006.5
20260509005538 23 140 3.2 8.0 0.00 0.00 0.00 83 1006.6
20260509005053 23 117 1.6 8.0 0.00 0.00 0.00 83 1006.6
20260509004511 23 111 0.0 8.0 0.00 0.00 0.00 83 1006.6
20260509004021 23 154 0.0 4.8 0.00 0.00 0.00 83 1006.5
20260509003539 23 134 0.0 8.0 0.00 0.00 0.00 82 1006.6
20260509003049 23 131 3.2 11.3 0.00 0.00 0.00 82 1006.6
20260509002507 23 130 4.8 12.9 0.00 0.00 0.00 82 1006.5
20260509002016 23 138 4.8 12.9 0.00 0.00 0.00 82 1006.6
20260509001531 23 135 3.2 11.3 0.00 0.00 0.00 82 1006.5
20260509001038 23 150 4.8 11.3 0.00 0.00 0.00 82 1006.7
20260509000554 23 187 6.4 11.3 0.00 0.00 0.00 82 1006.7
20260509000046 24 174 0.0 11.3 0.00 0.00 0.00 82 1006.6
20260508235503 24 159 4.8 11.3 0.00 0.00 0.00 82 1006.6
20260508235014 24 144 3.2 11.3 0.00 0.00 0.00 82 1006.6
20260508234528 24 162 3.2 12.9 0.00 0.00 0.00 82 1006.7
20260508234040 24 140 6.4 14.5 0.00 0.00 0.00 82 1006.6
20260508233554 24 134 4.8 12.9 0.00 0.00 0.00 82 1006.6
20260508233009 24 132 3.2 9.7 0.00 0.00 0.00 82 1006.6
20260508232524 24 182 1.6 9.7 0.00 0.00 0.00 82 1006.6
20260508232034 24 188 3.2 12.9 0.00 0.00 0.00 81 1006.7
20260508231553 24 181 4.8 12.9 0.00 0.00 0.00 81 1006.7
20260508231100 24 150 6.4 12.9 0.00 0.00 0.00 81 1006.8
20260508231004 24 171 8.0 12.9 0.00 0.00 0.00 81 1006.7
20260508230520 24 186 6.4 12.9 0.00 0.00 0.00 82 1006.7
20260508230019 24 150 6.4 12.9 0.00 0.00 0.00 81 1006.7
20260508225524 24 140 4.8 12.9 0.00 0.00 0.00 81 1006.7
20260508225041 24 184 6.4 12.9 0.00 0.00 0.00 80 1006.8
20260508224552 24 172 6.4 11.3 0.00 0.00 0.00 80 1006.8
20260508224006 25 160 3.2 12.9 0.00 0.00 0.00 80 1006.7
20260508223518 25 160 4.8 16.1 0.00 0.00 0.00 80 1006.6
20260508223041 25 142 8.0 16.1 0.00 0.00 0.00 80 1006.6
20260508222543 25 131 4.8 14.5 0.00 0.00 0.00 80 1006.6
20260508222104 25 153 9.7 14.5 0.00 0.00 0.00 80 1006.7
20260508222002 25 161 9.7 14.5 0.00 0.00 0.00 80 1006.7
20260508221512 25 171 8.0 12.9 0.00 0.00 0.00 80 1006.7
20260508221032 25 202 6.4 17.7 0.00 0.00 0.00 80 1006.8
20260508220541 25 163 9.7 17.7 0.00 0.00 0.00 80 1006.8
20260508220038 25 144 6.4 14.5 0.00 0.00 0.00 79 1006.8
20260508215554 25 136 8.0 14.5 0.00 0.00 0.00 80 1006.9
20260508215004 25 157 8.0 14.5 0.00 0.00 0.00 79 1006.8
20260508214517 25 175 8.0 14.5 0.00 0.00 0.00 78 1007.0
20260508214030 25 146 6.4 11.3 0.00 0.00 0.00 78 1007.1
20260508213545 25 132 4.8 11.3 0.00 0.00 0.00 78 1007.0
20260508213056 25 219 4.8 12.9 0.00 0.00 0.00 79 1007.1
20260508212513 25 172 8.0 14.5 0.00 0.00 0.00 77 1007.1
20260508212028 25 180 8.0 14.5 0.00 0.00 0.00 77 1007.2
20260508211542 26 130 6.4 12.9 0.00 0.00 0.00 77 1007.2
20260508211051 26 108 4.8 16.1 0.00 0.00 0.00 76 1007.2
20260508210508 26 148 9.7 16.1 0.00 0.00 0.00 76 1007.3
20260508210002 26 147 6.4 16.1 0.00 0.00 0.00 77 1007.5
20260508205511 26 169 3.2 16.1 0.00 0.00 0.00 77 1007.5
20260508205029 26 167 8.0 16.1 0.00 0.00 0.00 77 1007.5
20260508204542 26 5 3.2 14.5 0.00 0.00 0.00 79 1007.6
20260508204049 25 107 8.0 14.5 0.00 0.00 0.00 78 1007.6
20260508203503 25 92 8.0 12.9 0.00 0.00 0.00 77 1007.7
20260508203018 25 161 3.2 12.9 0.00 0.00 0.00 80 1007.8
20260508202528 25 163 8.0 12.9 0.00 0.00 0.00 79 1007.9
20260508202044 25 90 1.6 12.9 0.00 0.00 0.00 79 1008.0
20260508201554 25 67 6.4 12.9 0.00 0.00 0.00 78 1007.9
20260508201009 25 200 4.8 11.3 0.00 0.00 0.00 79 1008.1
20260508200520 25 176 6.4 12.9 0.00 0.00 0.00 79 1008.1
20260508200014 25 173 3.2 20.9 0.00 0.00 0.00 79 1008.1
20260508195525 25 128 3.2 20.9 0.00 0.00 0.00 79 1008.2
20260508195041 25 145 4.8 14.5 0.00 0.00 0.00 79 1008.3
20260508194609 25 139 6.4 12.9 0.00 0.00 0.00 78 1008.3
20260508194011 25 172 4.8 12.9 0.00 0.00 0.00 80 1008.3
20260508193526 25 155 4.8 16.1 0.00 0.00 0.00 79 1008.3
20260508193046 25 163 11.3 16.1 0.00 0.00 0.00 78 1008.4
20260508192552 25 182 6.4 16.1 0.00 0.00 0.00 79 1008.4
20260508192006 25 140 11.3 16.1 0.00 0.00 0.00 77 1008.5
20260508191520 25 165 6.4 14.5 0.00 0.00 0.00 77 1008.5
20260508191031 25 176 0.0 14.5 0.00 0.00 0.00 79 1008.5
20260508190545 25 148 8.0 14.5 0.00 0.00 0.00 77 1008.5
20260508190037 25 209 8.0 14.5 0.00 0.00 0.00 78 1008.6
20260508185551 25 148 6.4 14.5 0.00 0.00 0.00 79 1008.7
20260508185005 25 163 3.2 14.5 0.00 0.00 0.00 80 1008.8
20260508184519 25 153 4.8 14.5 0.00 0.00 0.00 82 1008.9
20260508184029 24 145 1.6 16.1 0.00 0.00 0.00 82 1009.0
20260508183543 23 179 6.4 16.1 0.00 0.00 0.00 82 1009.0
20260508183054 23 80 1.6 11.3 0.00 0.00 0.00 82 1008.9
20260508182510 23 116 4.8 11.3 0.00 0.00 0.00 81 1009.3
20260508182024 23 111 1.6 11.3 0.00 0.00 0.00 81 1009.4
20260508181551 23 134 3.2 11.3 0.00 0.00 0.00 81 1009.5
20260508181049 23 180 3.2 11.3 0.00 0.00 0.00 81 1009.6
20260508180507 23 144 3.2 11.3 0.00 0.00 0.00 81 1009.6
20260508180059 23 130 4.8 11.3 0.00 0.00 0.00 81 1009.7
20260508175514 23 175 0.0 12.9 0.00 0.00 0.00 81 1009.9
20260508175030 23 150 4.8 12.9 0.00 0.00 0.00 80 1010.0
20260508174539 23 205 4.8 12.9 0.00 0.00 0.00 80 1009.9
20260508174055 23 144 3.2 11.3 0.00 0.00 0.00 80 1009.8
20260508173511 23 178 1.6 9.7 0.00 0.00 0.00 81 1009.8
20260508173028 23 193 4.8 9.7 0.00 0.00 0.00 81 1009.8
20260508172539 23 221 3.2 8.0 0.00 0.00 0.00 81 1009.8
20260508172053 23 198 3.2 9.7 0.00 0.00 0.00 82 1009.9
20260508171505 23 164 3.2 9.7 0.00 0.00 0.00 82 1010.0
20260508171018 22 165 1.6 6.4 0.00 0.00 0.00 82 1010.0
20260508170529 22 140 1.6 6.4 0.00 0.00 0.00 83 1010.1
20260508170023 22 133 3.2 6.4 0.00 0.00 0.00 84 1010.2
20260508165532 22 77 0.0 4.8 0.00 0.00 0.00 83 1010.2
20260508165046 21 271 1.6 4.8 0.00 0.00 0.00 84 1010.2
20260508164559 21 190 0.0 3.2 0.00 0.00 0.00 85 1010.3
20260508164505 21 189 0.0 3.2 0.00 0.00 0.00 84 1010.3
20260508164015 21 283 0.0 1.6 0.00 0.00 0.00 85 1010.3
20260508163528 20 293 0.0 4.8 0.00 0.00 0.00 85 1010.5
20260508163046 20 294 0.0 4.8 0.00 0.00 0.00 86 1010.5
20260508162555 20 227 0.0 8.0 0.00 0.00 0.00 86 1010.6
20260508162006 20 222 4.8 8.0 0.00 0.00 0.00 87 1010.7
20260508161517 20 222 0.0 8.0 0.00 0.00 0.00 87 1010.9
20260508161027 19 184 0.0 6.4 0.00 0.00 0.00 87 1011.0
20260508160543 18 188 0.0 6.4 0.00 0.00 0.00 87 1011.0
20260508160057 18 196 1.6 6.4 0.00 0.00 0.00 88 1011.2
20260508155545 18 277 1.6 4.8 0.00 0.00 0.00 88 1011.4
20260508155059 18 73 0.0 4.8 0.00 0.00 0.00 88 1011.4
20260508155002 18 73 0.0 3.2 0.00 0.00 0.00 88 1011.4
20260508154516 17 131 0.0 3.2 0.00 0.00 0.00 88 1011.6
20260508154030 17 160 0.0 3.2 0.00 0.00 0.00 89 1011.8
20260508153543 17 119 0.0 3.2 0.00 0.00 0.00 89 1011.8
20260508153053 17 83 0.0 4.8 0.00 0.00 0.00 89 1011.8
20260508152512 17 82 1.6 4.8 0.00 0.00 0.00 89 1011.8
20260508152021 17 96 0.0 4.8 0.00 0.00 0.00 88 1011.8
20260508151533 16 111 0.0 3.2 0.00 0.00 0.00 88 1011.9
20260508151043 16 160 0.0 3.2 0.00 0.00 0.00 88 1011.9
20260508150556 16 160 0.0 3.2 0.00 0.00 0.00 88 1012.0
20260508150047 16 150 0.0 3.2 0.00 0.00 0.00 88 1012.0
20260508145505 16 150 0.0 3.2 0.00 0.00 0.00 88 1011.9
20260508145020 16 44 0.0 3.2 0.00 0.00 0.00 88 1012.0
20260508144530 16 44 0.0 3.2 0.00 0.00 0.00 88 1012.1
20260508144042 16 44 0.0 3.2 0.00 0.00 0.00 87 1012.3
20260508143557 16 44 0.0 4.8 0.00 0.00 0.00 88 1012.3
20260508143021 16 42 0.0 6.4 0.00 0.00 0.00 87 1012.2
20260508142525 16 47 1.6 6.4 0.00 0.00 0.00 88 1012.1
20260508142042 16 32 3.2 6.4 0.00 0.00 0.00 88 1012.0
20260508141556 16 360 0.0 4.8 0.00 0.00 0.00 88 1012.0
20260508141006 16 360 0.0 6.4 0.00 0.00 0.00 88 1012.1
20260508140518 16 360 0.0 4.8 0.00 0.00 0.00 88 1012.1
20260508140018 16 355 0.0 4.8 0.00 0.00 0.00 88 1011.9
20260508135523 16 355 0.0 6.4 0.00 0.00 0.00 88 1011.8
20260508135038 15 338 1.6 6.4 0.00 0.00 0.00 88 1011.9
20260508134546 15 24 0.0 3.2 0.00 0.00 0.00 88 1011.9
20260508134006 15 24 0.0 4.8 0.00 0.00 0.00 88 1012.0
20260508133518 15 24 1.6 4.8 0.00 0.00 0.00 88 1011.9
20260508133040 15 32 0.0 4.8 0.00 0.00 0.00 88 1011.9
20260508132544 15 34 1.6 4.8 0.00 0.00 0.00 88 1011.9
20260508132058 15 35 0.0 3.2 0.00 0.00 0.00 88 1011.9
20260508131510 15 35 0.0 3.2 0.00 0.00 0.00 88 1011.8
20260508131024 15 35 0.0 1.6 0.00 0.00 0.00 88 1011.9
20260508130536 15 35 0.0 3.2 0.00 0.00 0.00 88 1012.1
20260508130032 15 36 0.0 6.4 0.00 0.00 0.00 88 1012.0
20260508125548 15 42 1.6 6.4 0.00 0.00 0.00 88 1012.0
20260508125058 15 46 1.6 8.0 0.00 0.00 0.00 88 1011.9
20260508124514 15 53 3.2 8.0 0.00 0.00 0.00 88 1012.1
20260508124025 15 54 1.6 6.4 0.00 0.00 0.00 88 1012.3
20260508123540 15 37 1.6 8.0 0.00 0.00 0.00 87 1012.3
20260508123050 15 54 1.6 6.4 0.00 0.00 0.00 87 1012.2
20260508122511 15 348 0.0 8.0 0.00 0.00 0.00 87 1012.4
20260508122018 15 350 3.2 8.0 0.00 0.00 0.00 87 1011.9
20260508121553 15 5 3.2 8.0 0.00 0.00 0.00 87 1012.0
20260508121043 15 355 1.6 3.2 0.00 0.00 0.00 87 1012.4
20260508120557 15 44 0.0 1.6 0.00 0.00 0.00 87 1012.4
20260508120056 15 44 0.0 3.2 0.00 0.00 0.00 87 1012.3
20260508115508 15 44 0.0 1.6 0.00 0.00 0.00 86 1012.2
20260508115021 15 44 0.0 1.6 0.00 0.00 0.00 86 1012.2
20260508114537 15 44 0.0 1.6 0.00 0.00 0.00 86 1012.2
20260508114052 15 44 0.0 1.6 0.00 0.00 0.00 86 1012.2
20260508113512 15 44 0.0 1.6 0.00 0.00 0.00 86 1012.4
20260508113022 15 44 0.0 1.6 0.00 0.00 0.00 85 1012.5
20260508112541 15 44 0.0 3.2 0.00 0.00 0.00 85 1012.4
20260508112053 15 44 0.0 4.8 0.00 0.00 0.00 85 1012.4
20260508111510 15 45 1.6 4.8 0.00 0.00 0.00 85 1012.2
20260508111022 15 63 0.0 4.8 0.00 0.00 0.00 85 1012.2
20260508110535 15 19 0.0 3.2 0.00 0.00 0.00 84 1012.3
20260508110031 15 338 0.0 4.8 0.00 0.00 0.00 84 1012.6
20260508105541 15 337 0.0 4.8 0.00 0.00 0.00 84 1012.7
20260508105058 15 337 0.0 3.2 0.00 0.00 0.00 84 1012.8
20260508104515 15 333 0.0 4.8 0.00 0.00 0.00 84 1012.9
20260508104025 15 332 0.0 4.8 0.00 0.00 0.00 84 1012.7
20260508103543 15 336 0.0 8.0 0.00 0.00 0.00 84 1012.6
20260508103100 15 336 1.6 8.0 0.00 0.00 0.00 83 1012.4
20260508103012 15 336 1.6 8.0 0.00 0.00 0.00 83 1012.4
20260508102513 15 40 3.2 8.0 0.00 0.00 0.00 84 1012.3
20260508102033 15 346 3.2 8.0 0.00 0.00 0.00 84 1012.4
20260508101545 15 339 4.8 8.0 0.00 0.00 0.00 83 1012.4
20260508101006 15 333 1.6 4.8 0.00 0.00 0.00 84 1012.4
20260508100518 15 9 0.0 6.4 0.00 0.00 0.00 84 1012.3
20260508100013 15 11 0.0 6.4 0.00 0.00 0.00 84 1012.2
20260508095525 15 355 1.6 4.8 0.00 0.00 0.00 84 1012.1
20260508095038 15 355 0.0 3.2 0.00 0.00 0.00 84 1012.0
20260508094603 15 334 0.0 3.2 0.00 0.00 0.00 84 1012.1
20260508094007 15 333 1.6 4.8 0.00 0.00 0.00 84 1012.2
20260508093519 15 38 1.6 4.8 0.00 0.00 0.00 84 1012.2
20260508093033 15 42 0.0 3.2 0.00 0.00 0.00 84 1012.2
20260508092545 15 42 0.0 3.2 0.00 0.00 0.00 84 1012.3
20260508092100 15 42 0.0 3.2 0.00 0.00 0.00 84 1012.3
20260508092002 15 42 0.0 3.2 0.00 0.00 0.00 84 1012.3
20260508091514 15 42 0.0 1.6 0.00 0.00 0.00 84 1012.3
20260508091029 15 42 0.0 1.6 0.00 0.00 0.00 84 1012.3
20260508090539 15 42 0.0 1.6 0.00 0.00 0.00 83 1012.4
20260508090033 15 42 0.0 0.0 0.00 0.00 0.00 83 1012.4
20260508085548 15 42 0.0 0.0 0.00 0.00 0.00 83 1012.3
20260508085100 15 42 0.0 0.0 0.00 0.00 0.00 83 1012.4
20260508085002 15 42 0.0 0.0 0.00 0.00 0.00 83 1012.4
20260508084515 15 42 0.0 0.0 0.00 0.00 0.00 83 1012.4
20260508084033 15 42 0.0 0.0 0.00 0.00 0.00 83 1012.4
20260508083546 15 42 0.0 1.6 0.00 0.00 0.00 83 1012.4
20260508083148 15 42 0.0 1.6 0.00 0.00 0.00 83 1012.3
20260508083015 15 42 0.0 1.6 0.00 0.00 0.00 83 1012.3
20260508082518 15 42 0.0 0.0 0.00 0.00 0.00 83 1012.5
20260508082033 15 42 0.0 0.0 0.00 0.00 0.00 83 1012.6
20260508081546 15 42 0.0 1.6 0.00 0.00 0.00 83 1012.7
20260508081058 15 42 0.0 1.6 0.00 0.00 0.00 83 1012.8
20260508081001 15 42 0.0 0.0 0.00 0.00 0.00 83 1012.8
20260508080510 15 42 0.0 0.0 0.00 0.00 0.00 83 1012.7
20260508080005 15 42 0.0 0.0 0.00 0.00 0.00 83 1012.7
20260508075521 15 42 0.0 0.0 0.00 0.00 0.00 83 1012.6
20260508075037 15 42 0.0 0.0 0.00 0.00 0.00 83 1012.8
20260508074546 15 42 0.0 0.0 0.00 0.00 0.00 82 1012.9
20260508074010 15 42 0.0 1.6 0.00 0.00 0.00 82 1012.7
20260508073521 15 42 0.0 1.6 0.00 0.00 0.00 82 1012.8
20260508073035 15 42 0.0 0.0 0.00 0.00 0.00 82 1012.8
20260508072550 15 42 0.0 0.0 0.00 0.00 0.00 82 1012.8
20260508072005 15 42 0.0 1.6 0.00 0.00 0.00 82 1012.8
20260508071530 15 42 0.0 1.6 0.00 0.00 0.00 82 1012.8
20260508071033 15 42 0.0 0.0 0.00 0.00 0.00 82 1012.9
20260508070546 15 42 0.0 0.0 0.00 0.00 0.00 82 1013.0
20260508070039 15 42 0.0 0.0 0.00 0.00 0.00 82 1013.0
20260508065552 15 42 0.0 1.6 0.00 0.00 0.00 82 1012.8
20260508065006 15 42 0.0 6.4 0.00 0.00 0.00 82 1012.9
20260508064540 15 42 0.0 6.4 0.00 0.00 0.00 82 1012.7
20260508064036 15 45 0.0 1.6 0.00 0.00 0.00 83 1012.9
20260508063551 15 53 0.0 4.8 0.00 0.00 0.00 83 1012.7
20260508063101 15 53 0.0 6.4 0.00 0.00 0.00 83 1012.8
20260508063002 15 53 0.0 6.4 0.00 0.00 0.00 83 1012.7
20260508062518 15 49 3.2 6.4 0.00 0.00 0.00 83 1012.4
20260508062027 15 337 0.0 3.2 0.00 0.00 0.00 83 1012.8
20260508061544 15 303 0.0 3.2 0.00 0.00 0.00 83 1013.2
20260508061055 15 298 0.0 1.6 0.00 0.00 0.00 83 1013.1
20260508061003 15 298 0.0 1.6 0.00 0.00 0.00 83 1013.2
20260508060513 15 298 0.0 0.0 0.00 0.00 0.00 83 1013.3
20260508060008 15 298 0.0 0.0 0.00 0.00 0.00 82 1013.5
20260508055516 15 298 0.0 0.0 0.00 0.00 0.00 82 1013.3
20260508055034 15 298 0.0 1.6 0.00 0.00 0.00 82 1013.2
20260508054543 15 298 0.0 3.2 0.00 0.00 0.00 81 1013.3
20260508054058 16 298 0.0 4.8 0.00 0.00 0.00 81 1013.3
20260508053510 16 298 0.0 4.8 0.00 0.00 0.00 80 1013.4
20260508053027 16 19 0.0 4.8 0.00 0.00 0.00 80 1013.1
20260508052537 16 19 0.0 4.8 0.00 0.00 0.00 80 1013.0
20260508052050 16 336 0.0 1.6 0.00 0.00 0.00 80 1013.3
20260508051600 16 336 0.0 0.0 0.00 0.00 0.00 80 1013.5
20260508051502 16 336 0.0 0.0 0.00 0.00 0.00 80 1013.6
20260508051016 16 336 0.0 3.2 0.00 0.00 0.00 80 1013.6
20260508050527 16 336 0.0 3.2 0.00 0.00 0.00 80 1013.8
20260508050025 16 336 0.0 1.6 0.00 0.00 0.00 79 1013.6
20260508045539 16 336 0.0 4.8 0.00 0.00 0.00 79 1013.6
20260508045051 16 336 0.0 4.8 0.00 0.00 0.00 80 1013.8
20260508044508 16 355 0.0 4.8 0.00 0.00 0.00 80 1013.7
20260508044021 16 338 0.0 4.8 0.00 0.00 0.00 80 1013.5
20260508043533 15 338 0.0 3.2 0.00 0.00 0.00 80 1013.4
20260508043046 15 330 0.0 6.4 0.00 0.00 0.00 80 1013.5
20260508042503 15 299 0.0 6.4 0.00 0.00 0.00 81 1013.7
20260508042015 16 5 3.2 8.0 0.00 0.00 0.00 81 1013.3
20260508041529 16 343 1.6 8.0 0.00 0.00 0.00 81 1013.3
20260508041045 16 50 1.6 6.4 0.00 0.00 0.00 81 1012.5
20260508040556 16 42 0.0 8.0 0.00 0.00 0.00 81 1012.7
20260508040048 16 51 1.6 11.3 0.00 0.00 0.00 81 1012.7
20260508035511 16 46 4.8 11.3 0.00 0.00 0.00 81 1012.5
20260508035029 16 66 4.8 9.7 0.00 0.00 0.00 80 1012.4
20260508034538 16 58 1.6 4.8 0.00 0.00 0.00 81 1012.7
20260508034057 16 349 0.0 1.6 0.00 0.00 0.00 81 1013.0
20260508033510 16 349 0.0 0.0 0.00 0.00 0.00 80 1013.3
20260508033025 16 349 0.0 1.6 0.00 0.00 0.00 80 1013.6
20260508032536 16 349 0.0 1.6 0.00 0.00 0.00 80 1013.7
20260508032050 16 349 0.0 1.6 0.00 0.00 0.00 80 1013.7
20260508031608 16 349 0.0 3.2 0.00 0.00 0.00 80 1013.9
20260508031501 16 349 0.0 3.2 0.00 0.00 0.00 80 1014.0
20260508031015 16 349 0.0 3.2 0.00 0.00 0.00 80 1014.0
20260508030525 16 259 0.0 0.0 0.00 0.00 0.00 79 1014.0
20260508030019 16 259 0.0 1.6 0.00 0.00 0.00 79 1014.3
20260508025536 16 259 0.0 1.6 0.00 0.00 0.00 79 1014.4
20260508025048 16 259 0.0 1.6 0.00 0.00 0.00 78 1014.5
20260508024505 16 259 0.0 3.2 0.00 0.00 0.00 79 1014.4
20260508024015 16 259 0.0 4.8 0.00 0.00 0.00 79 1014.5
20260508023532 16 261 0.0 4.8 0.00 0.00 0.00 79 1014.4
20260508023042 16 261 1.6 6.4 0.00 0.00 0.00 79 1014.0
20260508022557 16 277 1.6 6.4 0.00 0.00 0.00 79 1013.9
20260508022018 16 268 3.2 6.4 0.00 0.00 0.00 78 1013.5
20260508021531 16 290 0.0 3.2 0.00 0.00 0.00 77 1012.9
20260508021049 17 24 0.0 3.2 0.00 0.00 0.00 77 1012.3
20260508020502 17 42 0.0 3.2 0.00 0.00 0.00 76 1012.2
20260508020057 17 42 0.0 3.2 0.00 0.00 0.00 77 1012.1
20260508015510 17 42 0.0 6.4 0.00 0.00 0.00 76 1011.7
20260508015027 17 36 1.6 6.4 0.00 0.00 0.00 75 1011.8
20260508014539 17 346 1.6 6.4 0.00 0.00 0.00 75 1012.2
20260508014055 17 351 1.6 6.4 0.00 0.00 0.00 75 1012.1
20260508013507 17 5 1.6 11.3 0.00 0.00 0.00 75 1012.0
20260508013021 17 86 4.8 11.3 0.00 0.00 0.00 75 1011.4
20260508012535 17 78 1.6 6.4 0.00 0.00 0.00 75 1011.7
20260508012049 17 30 1.6 9.7 0.00 0.00 0.00 74 1011.9
20260508011610 17 64 4.8 9.7 0.00 0.00 0.00 74 1011.8
20260508011508 17 71 4.8 9.7 0.00 0.00 0.00 74 1011.7
20260508011015 17 49 3.2 8.0 0.00 0.00 0.00 74 1011.8
20260508010535 17 345 3.2 12.9 0.00 0.00 0.00 74 1012.1